{"data":{"norad_id":47837,"epoch":"2026-09-20T01:06:24.001632Z","epoch_age_seconds":68364,"freshness":"FRESH","line1":"1 47837U 21018BC  26263.04611113  .00036469  00000+0  11249-2 0  9993","line2":"2 47837  53.1577  54.3874 0000890 345.4549  14.6428 15.33261443306557","mean_motion":15.33261443,"eccentricity":8.9e-5,"inclination_deg":53.1577,"raan_deg":54.3874,"arg_perigee_deg":345.4549,"mean_anomaly_deg":14.6428,"bstar":0.0011249,"rev_number":30655,"period_min":93.917446797754,"perigee_km":465.48022930426,"apogee_km":466.69850159731,"semimajor_km":6844.2263654508,"source":"CELESTRAK","updated_at":"2026-09-20T09:00:38.752714Z"}}